Content
SEND FEEDBACK

Daily
Averages
Monthly
Summary
Mexico

CANCUN, QUINTANA ROO


Home > North America > Mexico > Quintana Roo
Elevation: 9 meters     Latitude: 21 09N     Longitude: 086 49W

WEATHER
 
SELECT A DAY
Number of Records: 165,825;   Date Range: 1/1/95 - 9/29/14
 
SHARE

PRINT THIS DATA

[ ← Previous Day ]
WEATHER ALMANAC - 27 AUGUST, 2014
[ Next Day → ]
[ °F ]   °C
Weather ElementAverageHighLow
Temperature28.1 °C33 °C (2:45 pm)24 °C (2:43 am)
Dewpoint24.3 °C26 °C (8:41 pm)24 °C (7:40 am)
Humidity81.3 %100 % (2:43 am)59 % (12:46 pm)
Barometer1011.2 hPa1012.9 hPa (3:48 am)1009.8 hPa (3:50 pm)
Wind Speed8.4 km/h20.4 km/h (9:47 pm)
Weather ElementAverage
Visibility9.5 km
Wind DirectionSSW (185.9 °)

Weather ElementTotal
Precipitation---
Cooling Degree Days10.2 (Base 18.3)
Growing Degree Days18.5 (Base 10)
Averaged from 27 records on 27 August, 2014
WEATHER CONDITIONS BREAKOUT
WIND DIRECTION BREAKOUT
WEATHER BY HOUR - 27 AUGUST, 2014
[ °F ]   °C
Local TimeTemperatureDewpointHumidityBarometerVisibilityWind DirectionWind SpeedGust SpeedPrecipitationEventsConditions
12:45 AM26 °C24 °C89 %1010.8 hPa9.7 kmWSW (250°)5.6 km/hPartly Cloudy
1:46 AM26 °C24 °C89 %1010.8 hPa9.7 kmWest (270°)3.7 km/hScattered Clouds
2:42 AM25 °C24 °C94 %1010.5 hPa9.7 kmCalmScattered Clouds
3:42 AM25 °C24 °C94 %1010.2 hPa9.7 kmWest (280°)3.7 km/hClear
4:40 AM25 °C24 °C94 %1009.8 hPa9.7 kmWest (280°)5.6 km/hClear
5:43 AM24 °C24 °C100 %1010.5 hPa9.7 kmWest (270°)5.6 km/hScattered Clouds
6:40 AM24 °C24 °C100 %1010.5 hPa9.7 kmWest (260°)5.6 km/hScattered Clouds
7:06 AM24 °C24 °C100 %1010.8 hPa0.8 kmWest (260°)7.4 km/hFogFog
7:22 AM25 °C24 °C94 %1010.8 hPa1.6 kmWNW (300°)5.6 km/hScattered Clouds
7:42 AM26 °C24 °C89 %1011.2 hPa3.2 kmWest (280°)9.3 km/hMostly Cloudy
8:02 AM26 °C25 °C94 %1011.5 hPa6.4 kmWest (280°)7.4 km/hMostly Cloudy
8:44 AM28 °C25 °C84 %1011.9 hPa8 kmWNW (290°)7.4 km/hMostly Cloudy
9:43 AM31 °C24 °C66 %1011.5 hPa11.3 kmWest (280°)7.4 km/hMostly Cloudy
10:51 AM33 °C24 °C59 %1012.2 hPa9.7 kmWSW (240°)11.1 km/hMostly Cloudy
11:48 AM32 °C24 °C62 %1012.2 hPa11.3 kmSE (130°)16.7 km/hMostly Cloudy
12:49 PM30 °C24 °C70 %1011.2 hPa11.3 kmEast (100°)13 km/hMostly Cloudy
1:48 PM33 °C24 °C59 %1010.8 hPa11.3 kmSE (140°)18.5 km/hMostly Cloudy
2:49 PM33 °C24 °C59 %1010.2 hPa11.3 kmSE (140°)20.4 km/hMostly Cloudy
3:43 PM31 °C24 °C66 %1010.2 hPa11.3 kmENE (60°)13 km/hMostly Cloudy
4:46 PM30 °C24 °C70 %1010.8 hPa11.3 kmEast (100°)11.1 km/hMostly Cloudy
5:55 PM30 °C24 °C70 %1010.8 hPa11.3 kmESE (110°)7.4 km/hMostly Cloudy
6:44 PM29 °C24 °C74 %1010.2 hPa11.3 kmEast (90°)3.7 km/hMostly Cloudy
7:42 PM28 °C24 °C79 %1011.9 hPa11.3 kmENE (60°)5.6 km/hScattered Clouds
8:42 PM29 °C25 °C79 %1012.2 hPa11.3 kmESE (110°)7.4 km/hScattered Clouds
9:44 PM28 °C26 °C89 %1011.9 hPa11.3 kmSE (130°)11.1 km/hScattered Clouds
10:45 PM28 °C25 °C84 %1012.9 hPa11.3 kmSSE (150°)5.6 km/hScattered Clouds
11:47 PM28 °C26 °C89 %1012.9 hPa11.3 kmSSE (160°)7.4 km/hScattered Clouds
Hourly data recorded from MMUN, located 0 kilometers away from Cancun, Quintana Roo







STORIES FROM OUR PARTNERS